Location: Huntsville
(41.2590°N, 111.7678°W)
Time: 05:32:17
(UTC+00:00)

SR - Pass Details

Date: 15 June 2021
Orbit: 577 x 878 km, 66.7° (Epoch: 26 July)

Event Time Altitude Azimuth Distance (km) Brightness Sun altitude
Rises 11:02:40 0° 318° (NW) 3,255 ? -8.5°
Reaches altitude 10° 11:05:33 10° 305° (NW) 2,267 ? -8.0°
Maximum altitude 11:09:36 24° 253° (WSW) 1,463 ? -7.5°
Drops below altitude 10° 11:13:21 10° 201° (SSW) 2,097 ? -6.9°
Sets 11:15:56 0° 187° (S) 2,953 ? -6.6°
